Netzbetreibername:;SW Bad Pyrmont GmbH;;
Netz- oder Umspannebene:;Netzgebiet;;
Lastgangtyp:;Ergebnisse der Differenzbilanzierung;;
gesetzliche Grundlage:;� 12 Abs. 3 Satz 3 StromNZV;;
Einheit:;kW;;
Betrachtungszeitraum:;01.01.2023;31.12.2023;
;;;
Datum;von;bis;Wert
01.01.2023;00:00;00:15;-113
01.01.2023;00:15;00:30;102
01.01.2023;00:30;00:45;224
01.01.2023;00:45;01:00;355
01.01.2023;01:00;01:15;509
01.01.2023;01:15;01:30;704
01.01.2023;01:30;01:45;757
01.01.2023;01:45;02:00;773
01.01.2023;02:00;02:15;810
01.01.2023;02:15;02:30;811
01.01.2023;02:30;02:45;772
01.01.2023;02:45;03:00;668
01.01.2023;03:00;03:15;500
01.01.2023;03:15;03:30;369
01.01.2023;03:30;03:45;247
01.01.2023;03:45;04:00;98
01.01.2023;04:00;04:15;18
01.01.2023;04:15;04:30;-48
01.01.2023;04:30;04:45;-152
01.01.2023;04:45;05:00;-250
01.01.2023;05:00;05:15;-214
01.01.2023;05:15;05:30;-256
01.01.2023;05:30;05:45;-278
01.01.2023;05:45;06:00;58
01.01.2023;06:00;06:15;589
01.01.2023;06:15;06:30;627
01.01.2023;06:30;06:45;677
01.01.2023;06:45;07:00;650
01.01.2023;07:00;07:15;653
01.01.2023;07:15;07:30;640
01.01.2023;07:30;07:45;613
01.01.2023;07:45;08:00;537
01.01.2023;08:00;08:15;444
01.01.2023;08:15;08:30;174
01.01.2023;08:30;08:45;-1
01.01.2023;08:45;09:00;-46
01.01.2023;09:00;09:15;-273
01.01.2023;09:15;09:30;-358
01.01.2023;09:30;09:45;-452
01.01.2023;09:45;10:00;-576
01.01.2023;10:00;10:15;-566
01.01.2023;10:15;10:30;-602
01.01.2023;10:30;10:45;-701
01.01.2023;10:45;11:00;-833
01.01.2023;11:00;11:15;-824
01.01.2023;11:15;11:30;-786
01.01.2023;11:30;11:45;-743
01.01.2023;11:45;12:00;-796
01.01.2023;12:00;12:15;-816
01.01.2023;12:15;12:30;-818
01.01.2023;12:30;12:45;-748
01.01.2023;12:45;13:00;-661
01.01.2023;13:00;13:15;-541
01.01.2023;13:15;13:30;-325
01.01.2023;13:30;13:45;-55
01.01.2023;13:45;14:00;122
01.01.2023;14:00;14:15;195
01.01.2023;14:15;14:30;431
01.01.2023;14:30;14:45;511
01.01.2023;14:45;15:00;624
01.01.2023;15:00;15:15;718
01.01.2023;15:15;15:30;768
01.01.2023;15:30;15:45;931
01.01.2023;15:45;16:00;984
01.01.2023;16:00;16:15;1.176
01.01.2023;16:15;16:30;1.161
01.01.2023;16:30;16:45;1.411
01.01.2023;16:45;17:00;1.554
01.01.2023;17:00;17:15;1.485
01.01.2023;17:15;17:30;1.448
01.01.2023;17:30;17:45;1.384
01.01.2023;17:45;18:00;1.278
01.01.2023;18:00;18:15;959
01.01.2023;18:15;18:30;818
01.01.2023;18:30;18:45;564
01.01.2023;18:45;19:00;294
01.01.2023;19:00;19:15;233
01.01.2023;19:15;19:30;82
01.01.2023;19:30;19:45;-114
01.01.2023;19:45;20:00;-145
01.01.2023;20:00;20:15;-85
01.01.2023;20:15;20:30;-55
01.01.2023;20:30;20:45;-56
01.01.2023;20:45;21:00;102
01.01.2023;21:00;21:15;116
01.01.2023;21:15;21:30;156
01.01.2023;21:30;21:45;-72
01.01.2023;21:45;22:00;-493
01.01.2023;22:00;22:15;-725
01.01.2023;22:15;22:30;-831
01.01.2023;22:30;22:45;-792
01.01.2023;22:45;23:00;-752
01.01.2023;23:00;23:15;-586
01.01.2023;23:15;23:30;-475
01.01.2023;23:30;23:45;-197
02.01.2023;23:45;00:00;-52
02.01.2023;00:00;00:15;-260
02.01.2023;00:15;00:30;-109
02.01.2023;00:30;00:45;32
02.01.2023;00:45;01:00;121
02.01.2023;01:00;01:15;237
02.01.2023;01:15;01:30;246
02.01.2023;01:30;01:45;293
02.01.2023;01:45;02:00;237
02.01.2023;02:00;02:15;317
02.01.2023;02:15;02:30;291,4882622
02.01.2023;02:30;02:45;209,8681397
02.01.2023;02:45;03:00;89,49578707
02.01.2023;03:00;03:15;50,14871535
02.01.2023;03:15;03:30;8
02.01.2023;03:30;03:45;-74
02.01.2023;03:45;04:00;-287
02.01.2023;04:00;04:15;-294
02.01.2023;04:15;04:30;-291
02.01.2023;04:30;04:45;-224
02.01.2023;04:45;05:00;-233
02.01.2023;05:00;05:15;-195
02.01.2023;05:15;05:30;-210
02.01.2023;05:30;05:45;-238
02.01.2023;05:45;06:00;-16
02.01.2023;06:00;06:15;394
02.01.2023;06:15;06:30;111
02.01.2023;06:30;06:45;-110
02.01.2023;06:45;07:00;-334
02.01.2023;07:00;07:15;-418
02.01.2023;07:15;07:30;-662
02.01.2023;07:30;07:45;-768
02.01.2023;07:45;08:00;-825
02.01.2023;08:00;08:15;-840
02.01.2023;08:15;08:30;-950
02.01.2023;08:30;08:45;-1.029
02.01.2023;08:45;09:00;-774
02.01.2023;09:00;09:15;-742
02.01.2023;09:15;09:30;-725
02.01.2023;09:30;09:45;-599
02.01.2023;09:45;10:00;-457
02.01.2023;10:00;10:15;-414
02.01.2023;10:15;10:30;-288
02.01.2023;10:30;10:45;-325
02.01.2023;10:45;11:00;-211
02.01.2023;11:00;11:15;-145
02.01.2023;11:15;11:30;-96
02.01.2023;11:30;11:45;-91
02.01.2023;11:45;12:00;-10
02.01.2023;12:00;12:15;83
02.01.2023;12:15;12:30;42
02.01.2023;12:30;12:45;38
02.01.2023;12:45;13:00;44
02.01.2023;13:00;13:15;45
02.01.2023;13:15;13:30;24
02.01.2023;13:30;13:45;43
02.01.2023;13:45;14:00;135
02.01.2023;14:00;14:15;261
02.01.2023;14:15;14:30;295
02.01.2023;14:30;14:45;297
02.01.2023;14:45;15:00;370
02.01.2023;15:00;15:15;363
02.01.2023;15:15;15:30;433
02.01.2023;15:30;15:45;425
02.01.2023;15:45;16:00;508
02.01.2023;16:00;16:15;562
02.01.2023;16:15;16:30;547
02.01.2023;16:30;16:45;736
02.01.2023;16:45;17:00;876
02.01.2023;17:00;17:15;917
02.01.2023;17:15;17:30;975
02.01.2023;17:30;17:45;858
02.01.2023;17:45;18:00;628
02.01.2023;18:00;18:15;549
02.01.2023;18:15;18:30;250
02.01.2023;18:30;18:45;41
02.01.2023;18:45;19:00;-170
02.01.2023;19:00;19:15;-258
02.01.2023;19:15;19:30;-312
02.01.2023;19:30;19:45;-353
02.01.2023;19:45;20:00;-336
02.01.2023;20:00;20:15;-292
02.01.2023;20:15;20:30;-277
02.01.2023;20:30;20:45;-147
02.01.2023;20:45;21:00;-56
02.01.2023;21:00;21:15;21
02.01.2023;21:15;21:30;-1
02.01.2023;21:30;21:45;-215
02.01.2023;21:45;22:00;-713
02.01.2023;22:00;22:15;-1.131
02.01.2023;22:15;22:30;-1.015
02.01.2023;22:30;22:45;-961
02.01.2023;22:45;23:00;-923
02.01.2023;23:00;23:15;-792
02.01.2023;23:15;23:30;-665
02.01.2023;23:30;23:45;-604
03.01.2023;23:45;00:00;-549
03.01.2023;00:00;00:15;-754
03.01.2023;00:15;00:30;-699
03.01.2023;00:30;00:45;-733
03.01.2023;00:45;01:00;-711
03.01.2023;01:00;01:15;-708
03.01.2023;01:15;01:30;-775
03.01.2023;01:30;01:45;-803
03.01.2023;01:45;02:00;-825
03.01.2023;02:00;02:15;-583
03.01.2023;02:15;02:30;-543
03.01.2023;02:30;02:45;-462
03.01.2023;02:45;03:00;-461
03.01.2023;03:00;03:15;-358
03.01.2023;03:15;03:30;-300
03.01.2023;03:30;03:45;-251
03.01.2023;03:45;04:00;-208
03.01.2023;04:00;04:15;-216
03.01.2023;04:15;04:30;-256
03.01.2023;04:30;04:45;-158
03.01.2023;04:45;05:00;-201
03.01.2023;05:00;05:15;-128
03.01.2023;05:15;05:30;-216
03.01.2023;05:30;05:45;-235
03.01.2023;05:45;06:00;60
03.01.2023;06:00;06:15;442
03.01.2023;06:15;06:30;251
03.01.2023;06:30;06:45;26
03.01.2023;06:45;07:00;-97
03.01.2023;07:00;07:15;-343
03.01.2023;07:15;07:30;-590
03.01.2023;07:30;07:45;-661
03.01.2023;07:45;08:00;-706
03.01.2023;08:00;08:15;-680
03.01.2023;08:15;08:30;-848
03.01.2023;08:30;08:45;-909
03.01.2023;08:45;09:00;-808
03.01.2023;09:00;09:15;-790
03.01.2023;09:15;09:30;-688
03.01.2023;09:30;09:45;-617
03.01.2023;09:45;10:00;-630
03.01.2023;10:00;10:15;-610
03.01.2023;10:15;10:30;-634
03.01.2023;10:30;10:45;-579
03.01.2023;10:45;11:00;-432
03.01.2023;11:00;11:15;-308
03.01.2023;11:15;11:30;-302
03.01.2023;11:30;11:45;-165
03.01.2023;11:45;12:00;-220
03.01.2023;12:00;12:15;-187
03.01.2023;12:15;12:30;-154
03.01.2023;12:30;12:45;-158
03.01.2023;12:45;13:00;-154
03.01.2023;13:00;13:15;-164
03.01.2023;13:15;13:30;-95
03.01.2023;13:30;13:45;-19
03.01.2023;13:45;14:00;44
03.01.2023;14:00;14:15;-19
03.01.2023;14:15;14:30;102
03.01.2023;14:30;14:45;215
03.01.2023;14:45;15:00;389
03.01.2023;15:00;15:15;361
03.01.2023;15:15;15:30;355
03.01.2023;15:30;15:45;424
03.01.2023;15:45;16:00;460
03.01.2023;16:00;16:15;499
03.01.2023;16:15;16:30;369
03.01.2023;16:30;16:45;479
03.01.2023;16:45;17:00;752
03.01.2023;17:00;17:15;749
03.01.2023;17:15;17:30;774
03.01.2023;17:30;17:45;720
03.01.2023;17:45;18:00;618
03.01.2023;18:00;18:15;428
03.01.2023;18:15;18:30;231
03.01.2023;18:30;18:45;-44
03.01.2023;18:45;19:00;-259
03.01.2023;19:00;19:15;-399
03.01.2023;19:15;19:30;-408
03.01.2023;19:30;19:45;-445
03.01.2023;19:45;20:00;-447
03.01.2023;20:00;20:15;-414
03.01.2023;20:15;20:30;-296
03.01.2023;20:30;20:45;-189
03.01.2023;20:45;21:00;-91
03.01.2023;21:00;21:15;42
03.01.2023;21:15;21:30;35
03.01.2023;21:30;21:45;-115
03.01.2023;21:45;22:00;-818
03.01.2023;22:00;22:15;-1.114
03.01.2023;22:15;22:30;-1.360
03.01.2023;22:30;22:45;-1.281
03.01.2023;22:45;23:00;-1.179
03.01.2023;23:00;23:15;-1.001
03.01.2023;23:15;23:30;-953
03.01.2023;23:30;23:45;-877
04.01.2023;23:45;00:00;-803
04.01.2023;00:00;00:15;-735
04.01.2023;00:15;00:30;-717
04.01.2023;00:30;00:45;-686
04.01.2023;00:45;01:00;-682
04.01.2023;01:00;01:15;-704
04.01.2023;01:15;01:30;-760
04.01.2023;01:30;01:45;-760
04.01.2023;01:45;02:00;-763
04.01.2023;02:00;02:15;-549
04.01.2023;02:15;02:30;-458
04.01.2023;02:30;02:45;-388
04.01.2023;02:45;03:00;-318
04.01.2023;03:00;03:15;-282
04.01.2023;03:15;03:30;-290
04.01.2023;03:30;03:45;-161
04.01.2023;03:45;04:00;-160
04.01.2023;04:00;04:15;-149
04.01.2023;04:15;04:30;-209
04.01.2023;04:30;04:45;-269
04.01.2023;04:45;05:00;-188
04.01.2023;05:00;05:15;-111
04.01.2023;05:15;05:30;-216
04.01.2023;05:30;05:45;-213
04.01.2023;05:45;06:00;58
04.01.2023;06:00;06:15;491
04.01.2023;06:15;06:30;291
04.01.2023;06:30;06:45;88
04.01.2023;06:45;07:00;-138
04.01.2023;07:00;07:15;-279
04.01.2023;07:15;07:30;-373
04.01.2023;07:30;07:45;-539
04.01.2023;07:45;08:00;-571
04.01.2023;08:00;08:15;-670
04.01.2023;08:15;08:30;-674
04.01.2023;08:30;08:45;-859
04.01.2023;08:45;09:00;-634
04.01.2023;09:00;09:15;-561
04.01.2023;09:15;09:30;-533
04.01.2023;09:30;09:45;-365
04.01.2023;09:45;10:00;-234
04.01.2023;10:00;10:15;-244
04.01.2023;10:15;10:30;-183
04.01.2023;10:30;10:45;-199
04.01.2023;10:45;11:00;-223
04.01.2023;11:00;11:15;-161
04.01.2023;11:15;11:30;-25
04.01.2023;11:30;11:45;38
04.01.2023;11:45;12:00;107
04.01.2023;12:00;12:15;116
04.01.2023;12:15;12:30;32
04.01.2023;12:30;12:45;-91
04.01.2023;12:45;13:00;-68
04.01.2023;13:00;13:15;-71
04.01.2023;13:15;13:30;5
04.01.2023;13:30;13:45;110
04.01.2023;13:45;14:00;241
04.01.2023;14:00;14:15;155
04.01.2023;14:15;14:30;282
04.01.2023;14:30;14:45;547
04.01.2023;14:45;15:00;580
04.01.2023;15:00;15:15;580
04.01.2023;15:15;15:30;543
04.01.2023;15:30;15:45;520
04.01.2023;15:45;16:00;602
04.01.2023;16:00;16:15;626
04.01.2023;16:15;16:30;763
04.01.2023;16:30;16:45;729
04.01.2023;16:45;17:00;832
04.01.2023;17:00;17:15;870
04.01.2023;17:15;17:30;867
04.01.2023;17:30;17:45;810
04.01.2023;17:45;18:00;718
04.01.2023;18:00;18:15;471
04.01.2023;18:15;18:30;280
04.01.2023;18:30;18:45;35
04.01.2023;18:45;19:00;-225
04.01.2023;19:00;19:15;-322
04.01.2023;19:15;19:30;-280
04.01.2023;19:30;19:45;-349
04.01.2023;19:45;20:00;-390
04.01.2023;20:00;20:15;-401
04.01.2023;20:15;20:30;-342
04.01.2023;20:30;20:45;-134
04.01.2023;20:45;21:00;-76
04.01.2023;21:00;21:15;-14
04.01.2023;21:15;21:30;-29
04.01.2023;21:30;21:45;-293
04.01.2023;21:45;22:00;-916
04.01.2023;22:00;22:15;-1.188
04.01.2023;22:15;22:30;-1.410
04.01.2023;22:30;22:45;-1.296
04.01.2023;22:45;23:00;-1.195
04.01.2023;23:00;23:15;-971
04.01.2023;23:15;23:30;-925
04.01.2023;23:30;23:45;-918
05.01.2023;23:45;00:00;-849
05.01.2023;00:00;00:15;-765
05.01.2023;00:15;00:30;-698
05.01.2023;00:30;00:45;-729
05.01.2023;00:45;01:00;-695
05.01.2023;01:00;01:15;-690
05.01.2023;01:15;01:30;-739
05.01.2023;01:30;01:45;-799
05.01.2023;01:45;02:00;-790
05.01.2023;02:00;02:15;-607
05.01.2023;02:15;02:30;-605
05.01.2023;02:30;02:45;-556
05.01.2023;02:45;03:00;-461
05.01.2023;03:00;03:15;-453
05.01.2023;03:15;03:30;-435
05.01.2023;03:30;03:45;-399
05.01.2023;03:45;04:00;-328
05.01.2023;04:00;04:15;-284
05.01.2023;04:15;04:30;-299
05.01.2023;04:30;04:45;-273
05.01.2023;04:45;05:00;-212
05.01.2023;05:00;05:15;-62
05.01.2023;05:15;05:30;-124
05.01.2023;05:30;05:45;-130
05.01.2023;05:45;06:00;68
05.01.2023;06:00;06:15;500
05.01.2023;06:15;06:30;317
05.01.2023;06:30;06:45;35
05.01.2023;06:45;07:00;-172
05.01.2023;07:00;07:15;-288
05.01.2023;07:15;07:30;-407
05.01.2023;07:30;07:45;-591
05.01.2023;07:45;08:00;-667
05.01.2023;08:00;08:15;-743
05.01.2023;08:15;08:30;-814
05.01.2023;08:30;08:45;-860
05.01.2023;08:45;09:00;-782
05.01.2023;09:00;09:15;-743
05.01.2023;09:15;09:30;-525
05.01.2023;09:30;09:45;-407
05.01.2023;09:45;10:00;-336
05.01.2023;10:00;10:15;-210
05.01.2023;10:15;10:30;-209
05.01.2023;10:30;10:45;-270
05.01.2023;10:45;11:00;-214
05.01.2023;11:00;11:15;-180
05.01.2023;11:15;11:30;21
05.01.2023;11:30;11:45;-2
05.01.2023;11:45;12:00;54
05.01.2023;12:00;12:15;1
05.01.2023;12:15;12:30;7
05.01.2023;12:30;12:45;-114
05.01.2023;12:45;13:00;-202
05.01.2023;13:00;13:15;-180
05.01.2023;13:15;13:30;-104
05.01.2023;13:30;13:45;3
05.01.2023;13:45;14:00;46
05.01.2023;14:00;14:15;58
05.01.2023;14:15;14:30;152
05.01.2023;14:30;14:45;385
05.01.2023;14:45;15:00;498
05.01.2023;15:00;15:15;582
05.01.2023;15:15;15:30;581
05.01.2023;15:30;15:45;488
05.01.2023;15:45;16:00;488
05.01.2023;16:00;16:15;623
05.01.2023;16:15;16:30;635
05.01.2023;16:30;16:45;726
05.01.2023;16:45;17:00;861
05.01.2023;17:00;17:15;879
05.01.2023;17:15;17:30;758
05.01.2023;17:30;17:45;692
05.01.2023;17:45;18:00;552
05.01.2023;18:00;18:15;316
05.01.2023;18:15;18:30;196
05.01.2023;18:30;18:45;9
05.01.2023;18:45;19:00;-233
05.01.2023;19:00;19:15;-473
05.01.2023;19:15;19:30;-454
05.01.2023;19:30;19:45;-403
05.01.2023;19:45;20:00;-414
05.01.2023;20:00;20:15;-358
05.01.2023;20:15;20:30;-307
05.01.2023;20:30;20:45;-237
05.01.2023;20:45;21:00;-48
05.01.2023;21:00;21:15;-31
05.01.2023;21:15;21:30;11
05.01.2023;21:30;21:45;-110
05.01.2023;21:45;22:00;-838
05.01.2023;22:00;22:15;-1.122
05.01.2023;22:15;22:30;-1.362
05.01.2023;22:30;22:45;-1.276
05.01.2023;22:45;23:00;-1.199
05.01.2023;23:00;23:15;-1.022
05.01.2023;23:15;23:30;-943
05.01.2023;23:30;23:45;-874
06.01.2023;23:45;00:00;-778
06.01.2023;00:00;00:15;-756
06.01.2023;00:15;00:30;-728
06.01.2023;00:30;00:45;-761
06.01.2023;00:45;01:00;-737
06.01.2023;01:00;01:15;-762
06.01.2023;01:15;01:30;-832
06.01.2023;01:30;01:45;-799
06.01.2023;01:45;02:00;-827
06.01.2023;02:00;02:15;-661
06.01.2023;02:15;02:30;-599
06.01.2023;02:30;02:45;-562
06.01.2023;02:45;03:00;-458
06.01.2023;03:00;03:15;-428
06.01.2023;03:15;03:30;-391
06.01.2023;03:30;03:45;-345
06.01.2023;03:45;04:00;-344
06.01.2023;04:00;04:15;-232
06.01.2023;04:15;04:30;-251
06.01.2023;04:30;04:45;-243
06.01.2023;04:45;05:00;-221
06.01.2023;05:00;05:15;-124
06.01.2023;05:15;05:30;-230
06.01.2023;05:30;05:45;-302
06.01.2023;05:45;06:00;-101
06.01.2023;06:00;06:15;430
06.01.2023;06:15;06:30;222
06.01.2023;06:30;06:45;12
06.01.2023;06:45;07:00;-168
06.01.2023;07:00;07:15;-309
06.01.2023;07:15;07:30;-434
06.01.2023;07:30;07:45;-631
06.01.2023;07:45;08:00;-660
06.01.2023;08:00;08:15;-756
06.01.2023;08:15;08:30;-822
06.01.2023;08:30;08:45;-878
06.01.2023;08:45;09:00;-712
06.01.2023;09:00;09:15;-633
06.01.2023;09:15;09:30;-575
06.01.2023;09:30;09:45;-440
06.01.2023;09:45;10:00;-359
06.01.2023;10:00;10:15;-264
06.01.2023;10:15;10:30;-213
06.01.2023;10:30;10:45;-206
06.01.2023;10:45;11:00;-159
06.01.2023;11:00;11:15;-99
06.01.2023;11:15;11:30;116
06.01.2023;11:30;11:45;99
06.01.2023;11:45;12:00;74
06.01.2023;12:00;12:15;45
06.01.2023;12:15;12:30;20
06.01.2023;12:30;12:45;39
06.01.2023;12:45;13:00;22
06.01.2023;13:00;13:15;-62
06.01.2023;13:15;13:30;-13
06.01.2023;13:30;13:45;251
06.01.2023;13:45;14:00;372
06.01.2023;14:00;14:15;189
06.01.2023;14:15;14:30;255
06.01.2023;14:30;14:45;309
06.01.2023;14:45;15:00;391
06.01.2023;15:00;15:15;378
06.01.2023;15:15;15:30;322
06.01.2023;15:30;15:45;398
06.01.2023;15:45;16:00;464
06.01.2023;16:00;16:15;469
06.01.2023;16:15;16:30;638
06.01.2023;16:30;16:45;634
06.01.2023;16:45;17:00;860
06.01.2023;17:00;17:15;937
06.01.2023;17:15;17:30;904
06.01.2023;17:30;17:45;839
06.01.2023;17:45;18:00;751
06.01.2023;18:00;18:15;552
06.01.2023;18:15;18:30;319
06.01.2023;18:30;18:45;73
06.01.2023;18:45;19:00;-150
06.01.2023;19:00;19:15;-386
06.01.2023;19:15;19:30;-411
06.01.2023;19:30;19:45;-366
06.01.2023;19:45;20:00;-378
06.01.2023;20:00;20:15;-307
06.01.2023;20:15;20:30;-257
06.01.2023;20:30;20:45;-194
06.01.2023;20:45;21:00;-88
06.01.2023;21:00;21:15;-9
06.01.2023;21:15;21:30;25
06.01.2023;21:30;21:45;-115
06.01.2023;21:45;22:00;-853
06.01.2023;22:00;22:15;-1.101
06.01.2023;22:15;22:30;-1.371
06.01.2023;22:30;22:45;-1.255
06.01.2023;22:45;23:00;-1.107
06.01.2023;23:00;23:15;-903
06.01.2023;23:15;23:30;-793
06.01.2023;23:30;23:45;-719
07.01.2023;23:45;00:00;-650
07.01.2023;00:00;00:15;-635
07.01.2023;00:15;00:30;-794
07.01.2023;00:30;00:45;-889
07.01.2023;00:45;01:00;-1.010
07.01.2023;01:00;01:15;-1.016
07.01.2023;01:15;01:30;-1.015
07.01.2023;01:30;01:45;-995
07.01.2023;01:45;02:00;-917
07.01.2023;02:00;02:15;-710
07.01.2023;02:15;02:30;-656
07.01.2023;02:30;02:45;-584
07.01.2023;02:45;03:00;-512
07.01.2023;03:00;03:15;-469
07.01.2023;03:15;03:30;-464
07.01.2023;03:30;03:45;-420
07.01.2023;03:45;04:00;-372
07.01.2023;04:00;04:15;-363
07.01.2023;04:15;04:30;-360
07.01.2023;04:30;04:45;-336
07.01.2023;04:45;05:00;-336
07.01.2023;05:00;05:15;-286
07.01.2023;05:15;05:30;-320
07.01.2023;05:30;05:45;-300
07.01.2023;05:45;06:00;31
07.01.2023;06:00;06:15;602
07.01.2023;06:15;06:30;627
07.01.2023;06:30;06:45;613
07.01.2023;06:45;07:00;489
07.01.2023;07:00;07:15;425
07.01.2023;07:15;07:30;332
07.01.2023;07:30;07:45;151
07.01.2023;07:45;08:00;133
07.01.2023;08:00;08:15;-30
07.01.2023;08:15;08:30;-264
07.01.2023;08:30;08:45;-444
07.01.2023;08:45;09:00;-360
07.01.2023;09:00;09:15;-381
07.01.2023;09:15;09:30;-326
07.01.2023;09:30;09:45;-313
07.01.2023;09:45;10:00;-362
07.01.2023;10:00;10:15;-333
07.01.2023;10:15;10:30;-268
07.01.2023;10:30;10:45;-308
07.01.2023;10:45;11:00;-248
07.01.2023;11:00;11:15;-256
07.01.2023;11:15;11:30;-67
07.01.2023;11:30;11:45;-83
07.01.2023;11:45;12:00;-30
07.01.2023;12:00;12:15;-88
07.01.2023;12:15;12:30;-114
07.01.2023;12:30;12:45;-189
07.01.2023;12:45;13:00;-206
07.01.2023;13:00;13:15;-212
07.01.2023;13:15;13:30;-205
07.01.2023;13:30;13:45;-183
07.01.2023;13:45;14:00;-25
07.01.2023;14:00;14:15;-124
07.01.2023;14:15;14:30;63
07.01.2023;14:30;14:45;299
07.01.2023;14:45;15:00;342
07.01.2023;15:00;15:15;464
07.01.2023;15:15;15:30;412
07.01.2023;15:30;15:45;378
07.01.2023;15:45;16:00;496
07.01.2023;16:00;16:15;549
07.01.2023;16:15;16:30;749
07.01.2023;16:30;16:45;740
07.01.2023;16:45;17:00;808
07.01.2023;17:00;17:15;724
07.01.2023;17:15;17:30;468
07.01.2023;17:30;17:45;305
07.01.2023;17:45;18:00;28
07.01.2023;18:00;18:15;-39
07.01.2023;18:15;18:30;-269
07.01.2023;18:30;18:45;-260
07.01.2023;18:45;19:00;-460
07.01.2023;19:00;19:15;-565
07.01.2023;19:15;19:30;-722
07.01.2023;19:30;19:45;-800
07.01.2023;19:45;20:00;-803
07.01.2023;20:00;20:15;-584
07.01.2023;20:15;20:30;-360
07.01.2023;20:30;20:45;-165
07.01.2023;20:45;21:00;52
07.01.2023;21:00;21:15;98
07.01.2023;21:15;21:30;204
07.01.2023;21:30;21:45;16
07.01.2023;21:45;22:00;-704
07.01.2023;22:00;22:15;-995
07.01.2023;22:15;22:30;-1.288
07.01.2023;22:30;22:45;-1.289
07.01.2023;22:45;23:00;-1.210
07.01.2023;23:00;23:15;-1.057
07.01.2023;23:15;23:30;-996
07.01.2023;23:30;23:45;-1.021
08.01.2023;23:45;00:00;-968
08.01.2023;00:00;00:15;-951
08.01.2023;00:15;00:30;-973
08.01.2023;00:30;00:45;-941
08.01.2023;00:45;01:00;-928
08.01.2023;01:00;01:15;-914
08.01.2023;01:15;01:30;-907
08.01.2023;01:30;01:45;-870
08.01.2023;01:45;02:00;-798
08.01.2023;02:00;02:15;-628
08.01.2023;02:15;02:30;-573
08.01.2023;02:30;02:45;-533
08.01.2023;02:45;03:00;-444
08.01.2023;03:00;03:15;-418
08.01.2023;03:15;03:30;-420
08.01.2023;03:30;03:45;-324
08.01.2023;03:45;04:00;-315
08.01.2023;04:00;04:15;-253
08.01.2023;04:15;04:30;-236
08.01.2023;04:30;04:45;-259
08.01.2023;04:45;05:00;-201
08.01.2023;05:00;05:15;-175
08.01.2023;05:15;05:30;-217
08.01.2023;05:30;05:45;-272
08.01.2023;05:45;06:00;67
08.01.2023;06:00;06:15;769
08.01.2023;06:15;06:30;866
08.01.2023;06:30;06:45;879
08.01.2023;06:45;07:00;897
08.01.2023;07:00;07:15;941
08.01.2023;07:15;07:30;923
08.01.2023;07:30;07:45;947
08.01.2023;07:45;08:00;959
08.01.2023;08:00;08:15;925
08.01.2023;08:15;08:30;739
08.01.2023;08:30;08:45;522
08.01.2023;08:45;09:00;577
08.01.2023;09:00;09:15;446
08.01.2023;09:15;09:30;267
08.01.2023;09:30;09:45;141
08.01.2023;09:45;10:00;37
08.01.2023;10:00;10:15;-92
08.01.2023;10:15;10:30;-114
08.01.2023;10:30;10:45;-110
08.01.2023;10:45;11:00;-191
08.01.2023;11:00;11:15;-256
08.01.2023;11:15;11:30;-210
08.01.2023;11:30;11:45;-136
08.01.2023;11:45;12:00;-267
08.01.2023;12:00;12:15;-237
08.01.2023;12:15;12:30;-210
08.01.2023;12:30;12:45;-162
08.01.2023;12:45;13:00;-89
08.01.2023;13:00;13:15;-94
08.01.2023;13:15;13:30;65
08.01.2023;13:30;13:45;271
08.01.2023;13:45;14:00;387
08.01.2023;14:00;14:15;465
08.01.2023;14:15;14:30;611
08.01.2023;14:30;14:45;801
08.01.2023;14:45;15:00;973
08.01.2023;15:00;15:15;920
08.01.2023;15:15;15:30;1.040
08.01.2023;15:30;15:45;1.078
08.01.2023;15:45;16:00;1.198
08.01.2023;16:00;16:15;1.326
08.01.2023;16:15;16:30;1.452
08.01.2023;16:30;16:45;1.423
08.01.2023;16:45;17:00;1.558
08.01.2023;17:00;17:15;1.737
08.01.2023;17:15;17:30;1.653
08.01.2023;17:30;17:45;1.649
08.01.2023;17:45;18:00;1.512
08.01.2023;18:00;18:15;1.410
08.01.2023;18:15;18:30;1.191
08.01.2023;18:30;18:45;913
08.01.2023;18:45;19:00;560
08.01.2023;19:00;19:15;293
08.01.2023;19:15;19:30;158
08.01.2023;19:30;19:45;147
08.01.2023;19:45;20:00;-21
08.01.2023;20:00;20:15;31
08.01.2023;20:15;20:30;70
08.01.2023;20:30;20:45;147
08.01.2023;20:45;21:00;251
08.01.2023;21:00;21:15;176
08.01.2023;21:15;21:30;202
08.01.2023;21:30;21:45;0
08.01.2023;21:45;22:00;-719
08.01.2023;22:00;22:15;-1.054
08.01.2023;22:15;22:30;-1.329
08.01.2023;22:30;22:45;-1.274
08.01.2023;22:45;23:00;-1.217
08.01.2023;23:00;23:15;-968
08.01.2023;23:15;23:30;-874
08.01.2023;23:30;23:45;-861
09.01.2023;23:45;00:00;-774
09.01.2023;00:00;00:15;-1.097
09.01.2023;00:15;00:30;-1.034
09.01.2023;00:30;00:45;-983
09.01.2023;00:45;01:00;-940
09.01.2023;01:00;01:15;-943
09.01.2023;01:15;01:30;-912
09.01.2023;01:30;01:45;-905
09.01.2023;01:45;02:00;-917
09.01.2023;02:00;02:15;-817
09.01.2023;02:15;02:30;-793
09.01.2023;02:30;02:45;-799
09.01.2023;02:45;03:00;-770
09.01.2023;03:00;03:15;-622
09.01.2023;03:15;03:30;-570
09.01.2023;03:30;03:45;-558
09.01.2023;03:45;04:00;-492
09.01.2023;04:00;04:15;-440
09.01.2023;04:15;04:30;-330
09.01.2023;04:30;04:45;-281
09.01.2023;04:45;05:00;-279
09.01.2023;05:00;05:15;-230
09.01.2023;05:15;05:30;-303
09.01.2023;05:30;05:45;-217
09.01.2023;05:45;06:00;88
09.01.2023;06:00;06:15;544
09.01.2023;06:15;06:30;427
09.01.2023;06:30;06:45;269
09.01.2023;06:45;07:00;80
09.01.2023;07:00;07:15;-105
09.01.2023;07:15;07:30;-176
09.01.2023;07:30;07:45;-401
09.01.2023;07:45;08:00;-538
09.01.2023;08:00;08:15;-558
09.01.2023;08:15;08:30;-813
09.01.2023;08:30;08:45;-665
09.01.2023;08:45;09:00;-636
09.01.2023;09:00;09:15;-686
09.01.2023;09:15;09:30;-536
09.01.2023;09:30;09:45;-445
09.01.2023;09:45;10:00;-509
09.01.2023;10:00;10:15;-418
09.01.2023;10:15;10:30;-403
09.01.2023;10:30;10:45;-496
09.01.2023;10:45;11:00;-307
09.01.2023;11:00;11:15;-465
09.01.2023;11:15;11:30;-309
09.01.2023;11:30;11:45;-318
09.01.2023;11:45;12:00;-351
09.01.2023;12:00;12:15;-163
09.01.2023;12:15;12:30;-272
09.01.2023;12:30;12:45;-335
09.01.2023;12:45;13:00;-253
09.01.2023;13:00;13:15;-131
09.01.2023;13:15;13:30;-63
09.01.2023;13:30;13:45;94
09.01.2023;13:45;14:00;125
09.01.2023;14:00;14:15;20
09.01.2023;14:15;14:30;15
09.01.2023;14:30;14:45;65